Location: Christianberg
(48.9086°N, 14.0209°E)
Time: 21:47:18
(UTC+00:00)

CZ-3B R/B - Pass Details

Date: 20 June 2021
Orbit: 339 x 17330 km, 54.9° (Epoch: 03 August)

Event Time Altitude Azimuth Distance (km) Brightness Sun altitude
Rises 00:43:25 0° 287° (WNW) 7,282 7.4 -14.4°
Reaches altitude 10° 00:50:18 10° 292° (WNW) 4,362 6.3 -14.0°
Maximum altitude 00:58:31 51° 7° (N) 885 3.3 -13.4°
Drops below altitude 10° 01:01:28 10° 87° (E) 1,589 4.6 -13.2°
Sets 01:02:53 0° 94° (E) 2,256 5.3 -13.1°
